| time (UTC) | temp F | wind direction | speed knots | gust knots | rain 1hr in | rain 24hr in | rain mn in | humidity % | barometer mb |
| 20260506051022 | 61 | 155 | 0.0 | 0.0 | 0.00 | 0.00 | 0.00 | 88 | 1016.4 |
| 20260506050530 | 61 | 155 | 0.0 | 0.0 | 0.00 | 0.00 | 0.00 | 88 | 1016.5 |
| 20260506045025 | 61 | 155 | 0.0 | 0.0 | 0.00 | 0.00 | 0.00 | 88 | 1016.6 |
| 20260506044519 | 61 | 155 | 0.0 | 0.0 | 0.00 | 0.00 | 0.00 | 87 | 1016.5 |
| 20260506044011 | 61 | 155 | 0.0 | 0.0 | 0.00 | 0.00 | 0.00 | 87 | 1016.7 |
| 20260506043510 | 61 | 155 | 0.0 | 0.0 | 0.00 | 0.00 | 0.00 | 87 | 1016.6 |
| 20260506042501 | 62 | 155 | 0.0 | 0.0 | 0.00 | 0.00 | 0.00 | 87 | 1016.5 |
| 20260506042058 | 62 | 155 | 0.0 | 0.0 | 0.00 | 0.00 | 0.00 | 87 | 1016.7 |
| 20260506041559 | 62 | 155 | 0.0 | 0.0 | 0.00 | 0.00 | 0.00 | 87 | 1016.8 |
| 20260506041055 | 62 | 155 | 0.0 | 0.0 | 0.00 | 0.00 | 0.00 | 86 | 1016.9 |
| 20260506040555 | 62 | 155 | 0.0 | 0.0 | 0.00 | 0.00 | 0.00 | 86 | 1017.0 |
| 20260506040053 | 62 | 155 | 0.0 | 0.0 | 0.00 | 0.00 | 0.00 | 87 | 1016.9 |
| 20260506035553 | 62 | 155 | 0.0 | 0.0 | 0.00 | 0.00 | 0.00 | 86 | 1016.8 |
| 20260506035054 | 62 | 155 | 0.0 | 0.0 | 0.00 | 0.00 | 0.00 | 86 | 1016.8 |
| 20260506034555 | 63 | 155 | 0.0 | 0.0 | 0.00 | 0.00 | 0.00 | 85 | 1016.7 |
| 20260506034053 | 63 | 155 | 0.0 | 0.0 | 0.00 | 0.00 | 0.00 | 85 | 1016.5 |
| 20260506033551 | 63 | 155 | 0.0 | 0.0 | 0.00 | 0.00 | 0.00 | 85 | 1016.4 |
| 20260506033053 | 64 | 155 | 0.0 | 0.0 | 0.00 | 0.00 | 0.00 | 85 | 1016.4 |
| 20260506032554 | 64 | 155 | 0.0 | 0.0 | 0.00 | 0.00 | 0.00 | 85 | 1016.4 |
| 20260506032053 | 64 | 155 | 0.0 | 0.0 | 0.00 | 0.00 | 0.00 | 86 | 1016.3 |
| 20260506031548 | 63 | 155 | 0.0 | 0.0 | 0.00 | 0.00 | 0.00 | 86 | 1016.3 |
| 20260506031048 | 63 | 155 | 0.0 | 0.0 | 0.00 | 0.00 | 0.00 | 85 | 1016.3 |
| 20260506030552 | 64 | 155 | 0.0 | 0.0 | 0.00 | 0.00 | 0.00 | 84 | 1016.3 |
| 20260506030046 | 64 | 155 | 0.0 | 0.0 | 0.00 | 0.00 | 0.00 | 84 | 1016.2 |
| 20260506025552 | 64 | 155 | 0.0 | 0.0 | 0.00 | 0.00 | 0.00 | 84 | 1016.2 |
| 20260506025046 | 64 | 155 | 0.0 | 0.0 | 0.00 | 0.00 | 0.00 | 84 | 1016.2 |
| 20260506024548 | 64 | 155 | 0.0 | 0.0 | 0.00 | 0.00 | 0.00 | 83 | 1016.2 |
| 20260506024045 | 65 | 155 | 0.0 | 0.0 | 0.00 | 0.00 | 0.00 | 82 | 1016.2 |
| 20260506023545 | 65 | 155 | 0.0 | 0.0 | 0.00 | 0.00 | 0.00 | 81 | 1016.3 |
| 20260506023055 | 65 | 155 | 0.0 | 0.0 | 0.00 | 0.00 | 0.00 | 81 | 1016.2 |
| 20260506022541 | 65 | 155 | 0.0 | 0.0 | 0.00 | 0.00 | 0.00 | 82 | 1016.1 |
| 20260506022042 | 65 | 155 | 0.0 | 0.0 | 0.00 | 0.00 | 0.00 | 81 | 1016.1 |
| 20260506021552 | 66 | 155 | 0.0 | 0.0 | 0.00 | 0.00 | 0.00 | 81 | 1016.0 |
| 20260506021041 | 66 | 155 | 0.0 | 0.0 | 0.00 | 0.00 | 0.00 | 81 | 1016.0 |
| 20260506020541 | 66 | 155 | 0.0 | 0.0 | 0.00 | 0.00 | 0.00 | 80 | 1016.0 |
| 20260506020040 | 67 | 155 | 0.0 | 0.0 | 0.00 | 0.00 | 0.00 | 79 | 1015.9 |
| 20260506015538 | 67 | 155 | 0.0 | 0.0 | 0.00 | 0.00 | 0.00 | 79 | 1015.8 |
| 20260506015039 | 67 | 155 | 0.0 | 0.0 | 0.00 | 0.00 | 0.00 | 79 | 1015.8 |
| 20260506014539 | 67 | 155 | 0.0 | 0.0 | 0.00 | 0.00 | 0.00 | 78 | 1015.8 |
| 20260506014036 | 68 | 155 | 0.0 | 0.0 | 0.00 | 0.00 | 0.00 | 78 | 1015.8 |
| 20260506013535 | 68 | 155 | 0.0 | 0.0 | 0.00 | 0.00 | 0.00 | 77 | 1015.7 |
| 20260506013033 | 68 | 155 | 0.0 | 0.0 | 0.00 | 0.00 | 0.00 | 77 | 1015.7 |
| 20260506012532 | 68 | 155 | 0.0 | 0.0 | 0.00 | 0.00 | 0.00 | 77 | 1015.6 |
| 20260506012032 | 69 | 155 | 0.0 | 0.0 | 0.00 | 0.00 | 0.00 | 76 | 1015.7 |
| 20260506011535 | 69 | 155 | 0.0 | 0.0 | 0.00 | 0.00 | 0.00 | 76 | 1015.6 |
| 20260506011030 | 69 | 155 | 0.0 | 0.0 | 0.00 | 0.00 | 0.00 | 75 | 1015.5 |
| 20260506010529 | 69 | 155 | 0.0 | 0.0 | 0.00 | 0.00 | 0.00 | 75 | 1015.7 |
| 20260506010044 | 70 | 155 | 0.0 | 0.0 | 0.00 | 0.00 | 0.00 | 75 | 1015.7 |
| 20260506005530 | 70 | 155 | 0.0 | 0.9 | 0.00 | 0.00 | 0.00 | 74 | 1015.6 |
| 20260506005028 | 70 | 155 | 0.0 | 0.9 | 0.00 | 0.00 | 0.00 | 73 | 1015.5 |
| 20260506004528 | 71 | 323 | 0.0 | 0.0 | 0.00 | 0.00 | 0.00 | 72 | 1015.6 |
| 20260506004025 | 71 | 323 | 0.0 | 0.9 | 0.00 | 0.00 | 0.00 | 72 | 1015.6 |
| 20260506003529 | 71 | 323 | 0.0 | 1.7 | 0.00 | 0.00 | 0.00 | 72 | 1015.5 |
| 20260506003024 | 71 | 136 | 0.0 | 1.7 | 0.00 | 0.00 | 0.00 | 72 | 1015.5 |
| 20260506002524 | 71 | 333 | 0.0 | 0.9 | 0.00 | 0.00 | 0.00 | 71 | 1015.4 |
| 20260506002026 | 72 | 343 | 0.0 | 1.7 | 0.00 | 0.00 | 0.00 | 70 | 1015.4 |
| 20260506001531 | 72 | 124 | 0.0 | 1.7 | 0.00 | 0.00 | 0.00 | 70 | 1015.4 |
| 20260506001023 | 72 | 324 | 0.0 | 0.9 | 0.00 | 0.00 | 0.00 | 70 | 1015.2 |
| 20260506000625 | 72 | 334 | 0.0 | 0.9 | 0.00 | 0.00 | 0.00 | 69 | 1015.2 |
| 20260506000019 | 73 | 3 | 0.0 | 1.7 | 0.00 | 0.00 | 0.00 | 69 | 1015.3 |
| 20260505235523 | 73 | 325 | 0.0 | 4.3 | 0.00 | 0.00 | 0.00 | 68 | 1015.1 |
| 20260505235020 | 73 | 250 | 0.0 | 4.3 | 0.00 | 0.00 | 0.00 | 67 | 1015.1 |
| 20260505234533 | 74 | 82 | 0.0 | 4.3 | 0.00 | 0.00 | 0.00 | 67 | 1015.2 |
| 20260505234023 | 74 | 178 | 0.0 | 3.5 | 0.00 | 0.00 | 0.00 | 66 | 1015.1 |
| 20260505233614 | 74 | 178 | 0.0 | 3.5 | 0.00 | 0.00 | 0.00 | 66 | 1015.1 |
| 20260505233011 | 75 | 280 | 0.0 | 4.3 | 0.00 | 0.00 | 0.00 | 65 | 1015.1 |
| 20260505232513 | 75 | 298 | 0.0 | 4.3 | 0.00 | 0.00 | 0.00 | 63 | 1015.0 |
| 20260505232016 | 75 | 211 | 0.9 | 4.3 | 0.00 | 0.00 | 0.00 | 63 | 1015.1 |
| 20260505231513 | 76 | 179 | 0.9 | 4.3 | 0.00 | 0.00 | 0.00 | 61 | 1015.0 |
| 20260505231015 | 77 | 89 | 0.0 | 3.5 | 0.00 | 0.00 | 0.00 | 61 | 1015.0 |
| 20260505230525 | 77 | 254 | 0.0 | 4.3 | 0.00 | 0.00 | 0.00 | 60 | 1014.9 |
| 20260505230013 | 77 | 92 | 0.9 | 7.0 | 0.00 | 0.00 | 0.00 | 59 | 1015.1 |
| 20260505225510 | 77 | 99 | 0.9 | 4.3 | 0.00 | 0.00 | 0.00 | 59 | 1015.1 |
| 20260505225006 | 78 | 221 | 0.9 | 2.6 | 0.00 | 0.00 | 0.00 | 58 | 1015.1 |
| 20260505224507 | 78 | 311 | 0.0 | 2.6 | 0.00 | 0.00 | 0.00 | 58 | 1015.0 |
| 20260505224006 | 77 | 236 | 0.0 | 5.2 | 0.00 | 0.00 | 0.00 | 58 | 1015.1 |
| 20260505223505 | 78 | 124 | 0.9 | 4.3 | 0.00 | 0.00 | 0.00 | 58 | 1015.1 |
| 20260505223002 | 78 | 165 | 0.0 | 4.3 | 0.00 | 0.00 | 0.00 | 58 | 1015.0 |
| 20260505222503 | 78 | 150 | 0.9 | 3.5 | 0.00 | 0.00 | 0.00 | 57 | 1015.0 |
| 20260505222002 | 78 | 25 | 0.0 | 4.3 | 0.00 | 0.00 | 0.00 | 56 | 1015.0 |
| 20260505221600 | 79 | 103 | 0.9 | 4.3 | 0.00 | 0.00 | 0.00 | 56 | 1015.2 |
| 20260505221501 | 79 | 300 | 0.0 | 4.3 | 0.00 | 0.00 | 0.00 | 57 | 1015.1 |
| 20260505221101 | 79 | 32 | 1.7 | 4.3 | 0.00 | 0.00 | 0.00 | 55 | 1015.0 |
| 20260505221002 | 79 | 160 | 0.9 | 3.5 | 0.00 | 0.00 | 0.00 | 56 | 1015.1 |
| 20260505220602 | 79 | 323 | 0.0 | 5.2 | 0.00 | 0.00 | 0.00 | 56 | 1014.9 |
| 20260505220100 | 80 | 296 | 0.9 | 7.0 | 0.00 | 0.00 | 0.00 | 54 | 1015.0 |
| 20260505215558 | 80 | 297 | 0.9 | 7.0 | 0.00 | 0.00 | 0.00 | 53 | 1015.1 |
| 20260505215101 | 80 | 72 | 0.9 | 5.2 | 0.00 | 0.00 | 0.00 | 52 | 1015.1 |
| 20260505214624 | 81 | 105 | 0.9 | 5.2 | 0.00 | 0.00 | 0.00 | 52 | 1015.0 |
| 20260505214056 | 81 | 150 | 0.9 | 5.2 | 0.00 | 0.00 | 0.00 | 53 | 1014.9 |
| 20260505213554 | 81 | 84 | 0.9 | 5.2 | 0.00 | 0.00 | 0.00 | 53 | 1015.1 |
| 20260505212558 | 82 | 215 | 0.9 | 7.8 | 0.00 | 0.00 | 0.00 | 53 | 1015.0 |
| 20260505212052 | 82 | 203 | 0.0 | 6.1 | 0.00 | 0.00 | 0.00 | 52 | 1015.0 |
| 20260505211551 | 82 | 221 | 1.7 | 6.1 | 0.00 | 0.00 | 0.00 | 52 | 1015.1 |
| 20260505211052 | 83 | 306 | 0.9 | 4.3 | 0.00 | 0.00 | 0.00 | 52 | 1015.1 |
| 20260505210650 | 83 | 124 | 0.0 | 5.2 | 0.00 | 0.00 | 0.00 | 54 | 1015.2 |
| 20260505210057 | 84 | 313 | 0.9 | 5.2 | 0.00 | 0.00 | 0.00 | 51 | 1015.1 |
| 20260505205548 | 84 | 137 | 0.0 | 5.2 | 0.00 | 0.00 | 0.00 | 51 | 1015.1 |
| 20260505205049 | 84 | 121 | 0.9 | 4.3 | 0.00 | 0.00 | 0.00 | 52 | 1015.3 |
| 20260505204555 | 84 | 308 | 0.9 | 4.3 | 0.00 | 0.00 | 0.00 | 52 | 1015.2 |
| 20260505204046 | 85 | 101 | 0.9 | 7.0 | 0.00 | 0.00 | 0.00 | 50 | 1015.3 |
| 20260505203542 | 85 | 154 | 0.9 | 3.5 | 0.00 | 0.00 | 0.00 | 49 | 1015.3 |
| 20260505203047 | 85 | 198 | 0.0 | 4.3 | 0.00 | 0.00 | 0.00 | 51 | 1015.4 |
| 20260505202541 | 84 | 328 | 1.7 | 4.3 | 0.00 | 0.00 | 0.00 | 50 | 1015.5 |
| 20260505202043 | 85 | 39 | 0.9 | 5.2 | 0.00 | 0.00 | 0.00 | 50 | 1015.5 |
| 20260505201542 | 84 | 285 | 0.0 | 6.1 | 0.00 | 0.00 | 0.00 | 51 | 1015.6 |
| 20260505201039 | 85 | 357 | 1.7 | 6.1 | 0.00 | 0.00 | 0.00 | 51 | 1015.5 |
| 20260505200539 | 85 | 188 | 0.9 | 7.0 | 0.00 | 0.00 | 0.00 | 49 | 1015.5 |
| 20260505200048 | 85 | 110 | 0.9 | 7.0 | 0.00 | 0.00 | 0.00 | 52 | 1015.5 |
| 20260505195540 | 86 | 200 | 0.0 | 3.5 | 0.00 | 0.00 | 0.00 | 50 | 1015.6 |
| 20260505195037 | 86 | 271 | 0.9 | 3.5 | 0.00 | 0.00 | 0.00 | 50 | 1015.7 |
| 20260505194548 | 86 | 183 | 0.9 | 3.5 | 0.00 | 0.00 | 0.00 | 51 | 1015.7 |
| 20260505194041 | 86 | 117 | 0.9 | 5.2 | 0.00 | 0.00 | 0.00 | 49 | 1015.6 |
| 20260505193535 | 86 | 294 | 1.7 | 7.8 | 0.00 | 0.00 | 0.00 | 49 | 1015.7 |
| 20260505193035 | 86 | 295 | 0.0 | 7.8 | 0.00 | 0.00 | 0.00 | 51 | 1015.8 |
| 20260505192535 | 87 | 74 | 1.7 | 5.2 | 0.00 | 0.00 | 0.00 | 49 | 1015.7 |
| 20260505192030 | 87 | 108 | 0.0 | 4.3 | 0.00 | 0.00 | 0.00 | 49 | 1015.9 |
| 20260505191531 | 87 | 292 | 0.9 | 3.5 | 0.00 | 0.00 | 0.00 | 49 | 1016.0 |
| 20260505191030 | 87 | 300 | 0.0 | 4.3 | 0.00 | 0.00 | 0.00 | 51 | 1016.1 |
| 20260505190528 | 86 | 195 | 0.9 | 4.3 | 0.00 | 0.00 | 0.00 | 51 | 1016.2 |
| 20260505190030 | 86 | 298 | 0.0 | 4.3 | 0.00 | 0.00 | 0.00 | 52 | 1016.1 |
| 20260505185531 | 87 | 281 | 0.9 | 5.2 | 0.00 | 0.00 | 0.00 | 50 | 1016.1 |
| 20260505185024 | 86 | 214 | 0.9 | 6.1 | 0.00 | 0.00 | 0.00 | 50 | 1016.2 |
| 20260505184528 | 86 | 120 | 0.9 | 6.1 | 0.00 | 0.00 | 0.00 | 52 | 1016.2 |
| 20260505184023 | 86 | 348 | 1.7 | 6.1 | 0.00 | 0.00 | 0.00 | 50 | 1016.3 |
| 20260505183523 | 86 | 120 | 0.9 | 3.5 | 0.00 | 0.00 | 0.00 | 53 | 1016.2 |
| 20260505183120 | 86 | 107 | 0.0 | 2.6 | 0.00 | 0.00 | 0.00 | 53 | 1016.3 |
| 20260505182522 | 86 | 253 | 0.0 | 4.3 | 0.00 | 0.00 | 0.00 | 50 | 1016.3 |
| 20260505182017 | 85 | 94 | 0.9 | 4.3 | 0.00 | 0.00 | 0.00 | 54 | 1016.4 |
| 20260505181517 | 85 | 192 | 0.9 | 4.3 | 0.00 | 0.00 | 0.00 | 54 | 1016.3 |
| 20260505181033 | 84 | 312 | 0.9 | 4.3 | 0.00 | 0.00 | 0.00 | 55 | 1016.4 |
| 20260505180518 | 85 | 195 | 1.7 | 5.2 | 0.00 | 0.00 | 0.00 | 53 | 1016.5 |
| 20260505180032 | 85 | 167 | 0.9 | 5.2 | 0.00 | 0.00 | 0.00 | 52 | 1016.5 |
| 20260505175515 | 85 | 150 | 1.7 | 5.2 | 0.00 | 0.00 | 0.00 | 54 | 1016.5 |
| 20260505175018 | 86 | 110 | 0.9 | 4.3 | 0.00 | 0.00 | 0.00 | 51 | 1016.6 |
| 20260505174523 | 86 | 188 | 0.9 | 4.3 | 0.00 | 0.00 | 0.00 | 53 | 1016.7 |
| 20260505174010 | 86 | 46 | 0.0 | 2.6 | 0.00 | 0.00 | 0.00 | 55 | 1016.7 |
| 20260505173517 | 83 | 233 | 0.0 | 3.5 | 0.00 | 0.00 | 0.00 | 55 | 1016.7 |
| 20260505173012 | 82 | 156 | 0.0 | 3.5 | 0.00 | 0.00 | 0.00 | 56 | 1016.7 |
| 20260505172505 | 84 | 124 | 0.9 | 3.5 | 0.00 | 0.00 | 0.00 | 51 | 1016.7 |
| 20260505172004 | 84 | 284 | 0.9 | 2.6 | 0.00 | 0.00 | 0.00 | 55 | 1016.7 |
| 20260505171505 | 85 | 319 | 0.0 | 1.7 | 0.00 | 0.00 | 0.00 | 51 | 1016.7 |
| 20260505171004 | 85 | 110 | 0.0 | 1.7 | 0.00 | 0.00 | 0.00 | 52 | 1016.8 |
| 20260505170505 | 85 | 152 | 0.0 | 2.6 | 0.00 | 0.00 | 0.00 | 52 | 1016.9 |
| 20260505170100 | 86 | 203 | 0.0 | 2.6 | 0.00 | 0.00 | 0.00 | 53 | 1016.9 |
| 20260505170001 | 85 | 129 | 0.0 | 2.6 | 0.00 | 0.00 | 0.00 | 55 | 1016.8 |
| 20260505165557 | 85 | 103 | 0.9 | 2.6 | 0.00 | 0.00 | 0.00 | 56 | 1016.9 |
| 20260505165057 | 84 | 129 | 0.0 | 2.6 | 0.00 | 0.00 | 0.00 | 53 | 1017.0 |
| 20260505164556 | 83 | 131 | 0.9 | 2.6 | 0.00 | 0.00 | 0.00 | 55 | 1017.0 |
| 20260505164057 | 82 | 96 | 0.0 | 2.6 | 0.00 | 0.00 | 0.00 | 57 | 1017.0 |
| 20260505163554 | 82 | 355 | 0.0 | 1.7 | 0.00 | 0.00 | 0.00 | 57 | 1016.9 |
| 20260505163056 | 81 | 155 | 0.0 | 1.7 | 0.00 | 0.00 | 0.00 | 59 | 1017.0 |
| 20260505162551 | 81 | 285 | 0.0 | 0.9 | 0.00 | 0.00 | 0.00 | 58 | 1017.1 |
| 20260505162053 | 81 | 310 | 0.0 | 4.3 | 0.00 | 0.00 | 0.00 | 57 | 1017.1 |
| 20260505161603 | 82 | 172 | 0.9 | 4.3 | 0.00 | 0.00 | 0.00 | 54 | 1017.0 |
| 20260505161051 | 83 | 329 | 0.0 | 1.7 | 0.00 | 0.00 | 0.00 | 55 | 1017.0 |
| 20260505160550 | 84 | 267 | 0.0 | 3.5 | 0.00 | 0.00 | 0.00 | 52 | 1017.0 |
| 20260505153042 | 81 | 178 | 0.0 | 4.3 | 0.00 | 0.00 | 0.00 | 60 | 1017.0 |
| 20260505152035 | 81 | 168 | 0.0 | 3.5 | 0.00 | 0.00 | 0.00 | 61 | 1017.1 |
| 20260505151552 | 81 | 310 | 0.0 | 2.6 | 0.00 | 0.00 | 0.00 | 61 | 1017.1 |
| 20260505151037 | 80 | 231 | 0.9 | 2.6 | 0.00 | 0.00 | 0.00 | 60 | 1017.0 |
| 20260505150531 | 80 | 207 | 0.0 | 1.7 | 0.00 | 0.00 | 0.00 | 64 | 1017.1 |
| 20260505140556 | 75 | 309 | 0.0 | 1.7 | 0.00 | 0.00 | 0.00 | 72 | 1017.2 |
| 20260505140110 | 75 | 300 | 0.0 | 2.6 | 0.00 | 0.00 | 0.00 | 71 | 1017.2 |
| 20260505130127 | 67 | 146 | 0.0 | 0.9 | 0.00 | 0.00 | 0.00 | 88 | 1016.8 |
| 20260505125028 | 64 | 131 | 0.0 | 0.0 | 0.00 | 0.00 | 0.00 | 92 | 1016.7 |
| 20260505124537 | 63 | 185 | 0.0 | 0.9 | 0.00 | 0.00 | 0.00 | 94 | 1016.8 |
| 20260505124023 | 63 | 263 | 0.0 | 0.9 | 0.00 | 0.00 | 0.00 | 94 | 1016.8 |
| 20260505123625 | 62 | 11 | 0.0 | 0.0 | 0.00 | 0.00 | 0.00 | 94 | 1016.7 |
| 20260505123021 | 62 | 11 | 0.0 | 0.0 | 0.00 | 0.00 | 0.00 | 94 | 1016.8 |
| 20260505122517 | 61 | 11 | 0.0 | 0.0 | 0.00 | 0.00 | 0.00 | 94 | 1016.9 |
| 20260505122022 | 60 | 11 | 0.0 | 0.0 | 0.00 | 0.00 | 0.00 | 94 | 1016.9 |
| 20260505121020 | 59 | 11 | 0.0 | 0.9 | 0.00 | 0.00 | 0.00 | 94 | 1016.7 |
| 20260505120515 | 59 | 10 | 0.0 | 0.0 | 0.00 | 0.00 | 0.00 | 94 | 1016.5 |
| 20260505120017 | 58 | 10 | 0.0 | 0.0 | 0.00 | 0.00 | 0.00 | 94 | 1016.5 |
| 20260505115506 | 58 | 10 | 0.0 | 0.0 | 0.00 | 0.00 | 0.00 | 94 | 1016.4 |
| 20260505115005 | 57 | 10 | 0.0 | 0.0 | 0.00 | 0.00 | 0.00 | 94 | 1016.3 |
| 20260505114504 | 57 | 10 | 0.0 | 0.0 | 0.00 | 0.00 | 0.00 | 94 | 1016.4 |
| 20260505114003 | 57 | 10 | 0.0 | 0.0 | 0.00 | 0.00 | 0.00 | 93 | 1016.5 |
| 20260505113503 | 57 | 10 | 0.0 | 0.0 | 0.00 | 0.00 | 0.00 | 93 | 1016.5 |
| 20260505113003 | 56 | 10 | 0.0 | 0.0 | 0.00 | 0.00 | 0.00 | 93 | 1016.5 |
| 20260505112549 | 56 | 10 | 0.0 | 0.0 | 0.00 | 0.00 | 0.00 | 93 | 1016.4 |
| 20260505112046 | 56 | 10 | 0.0 | 0.0 | 0.00 | 0.00 | 0.00 | 93 | 1016.4 |
| 20260505111546 | 56 | 10 | 0.0 | 0.0 | 0.00 | 0.00 | 0.00 | 93 | 1016.3 |
| 20260505111045 | 56 | 10 | 0.0 | 0.0 | 0.00 | 0.00 | 0.00 | 93 | 1016.2 |
| 20260505110559 | 55 | 10 | 0.0 | 0.0 | 0.00 | 0.00 | 0.00 | 93 | 1016.2 |
| 20260505102037 | 56 | 10 | 0.0 | 0.0 | 0.00 | 0.00 | 0.00 | 93 | 1015.8 |
| 20260505101536 | 56 | 10 | 0.0 | 0.0 | 0.00 | 0.00 | 0.00 | 92 | 1015.7 |
| 20260505101033 | 56 | 10 | 0.0 | 0.0 | 0.00 | 0.00 | 0.00 | 92 | 1015.7 |
| 20260505100531 | 56 | 10 | 0.0 | 0.0 | 0.00 | 0.00 | 0.00 | 92 | 1015.5 |
| 20260505100032 | 56 | 10 | 0.0 | 0.0 | 0.00 | 0.00 | 0.00 | 92 | 1015.5 |
| 20260505095532 | 57 | 10 | 0.0 | 0.0 | 0.00 | 0.00 | 0.00 | 93 | 1015.4 |
| 20260505095033 | 56 | 10 | 0.0 | 0.0 | 0.00 | 0.00 | 0.00 | 92 | 1015.4 |
| 20260505094528 | 56 | 10 | 0.0 | 0.0 | 0.00 | 0.00 | 0.00 | 92 | 1015.3 |
| 20260505094028 | 57 | 10 | 0.0 | 0.0 | 0.00 | 0.00 | 0.00 | 92 | 1015.3 |
| 20260505093526 | 57 | 10 | 0.0 | 0.0 | 0.00 | 0.00 | 0.00 | 92 | 1015.3 |
| 20260505093034 | 57 | 10 | 0.0 | 0.0 | 0.00 | 0.00 | 0.00 | 92 | 1015.3 |
| 20260505092524 | 57 | 10 | 0.0 | 0.0 | 0.00 | 0.00 | 0.00 | 92 | 1015.2 |
| 20260505092021 | 57 | 10 | 0.0 | 0.0 | 0.00 | 0.00 | 0.00 | 92 | 1015.1 |
| 20260505091525 | 57 | 10 | 0.0 | 0.0 | 0.00 | 0.00 | 0.00 | 92 | 1015.0 |
| 20260505091020 | 57 | 10 | 0.0 | 0.0 | 0.00 | 0.00 | 0.00 | 92 | 1015.0 |
| 20260505090525 | 57 | 10 | 0.0 | 0.0 | 0.00 | 0.00 | 0.00 | 92 | 1014.9 |
| 20260505090021 | 57 | 10 | 0.0 | 0.0 | 0.00 | 0.00 | 0.00 | 92 | 1015.0 |
| 20260505085526 | 57 | 10 | 0.0 | 0.0 | 0.00 | 0.00 | 0.00 | 92 | 1014.9 |
| 20260505085020 | 57 | 10 | 0.0 | 0.0 | 0.00 | 0.00 | 0.00 | 92 | 1015.0 |
| 20260505084518 | 57 | 10 | 0.0 | 0.0 | 0.00 | 0.00 | 0.00 | 92 | 1014.9 |
| 20260505084019 | 57 | 10 | 0.0 | 0.0 | 0.00 | 0.00 | 0.00 | 92 | 1015.0 |
| 20260505083517 | 57 | 10 | 0.0 | 0.0 | 0.00 | 0.00 | 0.00 | 92 | 1015.0 |
| 20260505083024 | 57 | 10 | 0.0 | 0.0 | 0.00 | 0.00 | 0.00 | 92 | 1014.9 |
| 20260505082516 | 57 | 10 | 0.0 | 0.0 | 0.00 | 0.00 | 0.00 | 92 | 1014.9 |
| 20260505082014 | 57 | 10 | 0.0 | 0.0 | 0.00 | 0.00 | 0.00 | 92 | 1014.9 |
| 20260505081614 | 57 | 10 | 0.0 | 0.0 | 0.00 | 0.00 | 0.00 | 92 | 1014.7 |
| 20260505081015 | 57 | 10 | 0.0 | 0.0 | 0.00 | 0.00 | 0.00 | 92 | 1014.6 |
| 20260505080511 | 57 | 10 | 0.0 | 0.0 | 0.00 | 0.00 | 0.00 | 92 | 1014.7 |
| 20260505080009 | 57 | 10 | 0.0 | 0.0 | 0.00 | 0.00 | 0.00 | 92 | 1014.8 |
| 20260505075510 | 57 | 10 | 0.0 | 0.0 | 0.00 | 0.00 | 0.00 | 92 | 1014.9 |
| 20260505075008 | 57 | 10 | 0.0 | 0.0 | 0.00 | 0.00 | 0.00 | 92 | 1014.9 |
| 20260505074508 | 57 | 10 | 0.0 | 0.0 | 0.00 | 0.00 | 0.00 | 91 | 1015.0 |
| 20260505074010 | 57 | 10 | 0.0 | 0.0 | 0.00 | 0.00 | 0.00 | 91 | 1015.0 |
| 20260505073510 | 57 | 10 | 0.0 | 0.0 | 0.00 | 0.00 | 0.00 | 91 | 1015.0 |
| 20260505073005 | 57 | 10 | 0.0 | 0.0 | 0.00 | 0.00 | 0.00 | 91 | 1015.0 |
| 20260505072507 | 57 | 10 | 0.0 | 0.0 | 0.00 | 0.00 | 0.00 | 91 | 1015.1 |
| 20260505072002 | 57 | 10 | 0.0 | 0.0 | 0.00 | 0.00 | 0.00 | 91 | 1015.1 |
| 20260505071502 | 57 | 10 | 0.0 | 0.0 | 0.00 | 0.00 | 0.00 | 91 | 1015.2 |
| 20260505071103 | 57 | 10 | 0.0 | 0.0 | 0.00 | 0.00 | 0.00 | 91 | 1015.2 |
| 20260505070601 | 57 | 10 | 0.0 | 0.0 | 0.00 | 0.00 | 0.00 | 91 | 1015.3 |
| 20260505070100 | 57 | 10 | 0.0 | 0.0 | 0.00 | 0.00 | 0.00 | 91 | 1015.2 |
| 20260505065600 | 58 | 10 | 0.0 | 0.0 | 0.00 | 0.00 | 0.00 | 91 | 1015.3 |
| 20260505065011 | 58 | 10 | 0.0 | 0.0 | 0.00 | 0.00 | 0.00 | 91 | 1015.4 |
| 20260505064552 | 58 | 10 | 0.0 | 0.0 | 0.00 | 0.00 | 0.00 | 90 | 1015.2 |
| 20260505064053 | 58 | 10 | 0.0 | 0.0 | 0.00 | 0.00 | 0.00 | 90 | 1015.3 |
| 20260505063553 | 58 | 10 | 0.0 | 0.0 | 0.00 | 0.00 | 0.00 | 90 | 1015.3 |
| 20260505063119 | 58 | 10 | 0.0 | 0.0 | 0.00 | 0.00 | 0.00 | 90 | 1015.3 |
| 20260505062548 | 58 | 10 | 0.0 | 0.0 | 0.00 | 0.00 | 0.00 | 90 | 1015.5 |
| 20260505062047 | 58 | 10 | 0.0 | 0.0 | 0.00 | 0.00 | 0.00 | 90 | 1015.7 |
| 20260505061612 | 58 | 10 | 0.0 | 0.0 | 0.00 | 0.00 | 0.00 | 90 | 1015.8 |
| 20260505061045 | 58 | 10 | 0.0 | 0.0 | 0.00 | 0.00 | 0.00 | 90 | 1015.9 |
| 20260505060546 | 58 | 10 | 0.0 | 0.0 | 0.00 | 0.00 | 0.00 | 90 | 1016.0 |
| 20260505060048 | 58 | 10 | 0.0 | 0.0 | 0.00 | 0.00 | 0.00 | 89 | 1016.0 |
| 20260505055542 | 58 | 10 | 0.0 | 0.0 | 0.00 | 0.00 | 0.00 | 89 | 1016.0 |
| 20260505055041 | 58 | 10 | 0.0 | 0.0 | 0.00 | 0.00 | 0.00 | 89 | 1016.0 |